TimeHST,TemperatureF,Dew PointF,Humidity,Sea Level PressureIn,VisibilityMPH,Wind Direction,Wind SpeedMPH,Gust SpeedMPH,PrecipitationIn,Events,Conditions,WindDirDegrees,DateUTC
12:55 AM,66.7,55.6,67,30.15,10.0,Calm,Calm,-,N/A,,Overcast,0,2013-03-04 10:55:00
1:55 AM,67.1,55.0,65,30.14,10.0,ENE,3.5,-,N/A,,Overcast,70,2013-03-04 11:55:00
2:55 AM,66.6,53.1,62,30.14,10.0,Calm,Calm,-,N/A,,Overcast,0,2013-03-04 12:55:00
3:55 AM,66.2,52.3,61,30.12,10.0,Variable,5.8,-,N/A,,Mostly Cloudy,0,2013-03-04 13:55:00
4:55 AM,66.6,53.6,63,30.13,10.0,NE,5.8,-,N/A,,Overcast,50,2013-03-04 14:55:00
5:55 AM,66.9,54.0,63,30.14,10.0,Calm,Calm,-,N/A,,Overcast,0,2013-03-04 15:55:00
6:55 AM,66.7,52.0,59,30.15,10.0,East,5.8,-,N/A,,Overcast,80,2013-03-04 16:55:00
7:55 AM,68.0,56.1,66,30.17,10.0,NE,5.8,-,N/A,,Overcast,40,2013-03-04 17:55:00
8:55 AM,68.2,57.0,67,30.17,10.0,NE,3.5,-,N/A,,Overcast,50,2013-03-04 18:55:00
9:55 AM,70.7,53.8,55,30.18,10.0,East,10.4,-,N/A,,Mostly Cloudy,90,2013-03-04 19:55:00
10:55 AM,71.8,55.4,56,30.17,10.0,ENE,11.5,-,N/A,,Overcast,60,2013-03-04 20:55:00
11:55 AM,72.5,53.8,52,30.15,10.0,East,13.8,23.0,N/A,,Overcast,80,2013-03-04 21:55:00
12:55 PM,71.1,55.4,58,30.14,10.0,Variable,3.5,-,N/A,,Overcast,0,2013-03-04 22:55:00
1:55 PM,72.1,56.8,58,30.12,10.0,ENE,11.5,-,N/A,,Overcast,70,2013-03-04 23:55:00
2:55 PM,74.3,54.5,50,30.10,10.0,East,15.0,-,N/A,,Partly Cloudy,80,2013-03-05 00:55:00
3:55 PM,73.6,54.3,51,30.09,10.0,East,16.1,-,N/A,,Mostly Cloudy,100,2013-03-05 01:55:00
4:55 PM,71.1,54.3,55,30.11,10.0,East,11.5,-,N/A,,Clear,100,2013-03-05 02:55:00
5:55 PM,69.4,54.3,59,30.12,10.0,ENE,8.1,-,N/A,,Scattered Clouds,60,2013-03-05 03:55:00
6:55 PM,67.1,54.7,64,30.12,10.0,North,6.9,-,N/A,,Partly Cloudy,350,2013-03-05 04:55:00
7:55 PM,66.0,55.0,68,30.12,10.0,North,6.9,-,N/A,,Mostly Cloudy,350,2013-03-05 05:55:00
8:55 PM,65.3,55.2,70,30.13,10.0,North,4.6,-,N/A,,Partly Cloudy,350,2013-03-05 06:55:00
9:55 PM,64.6,54.3,69,30.13,10.0,North,5.8,-,N/A,,Clear,350,2013-03-05 07:55:00
10:55 PM,63.3,53.2,70,30.13,10.0,Calm,Calm,-,N/A,,Clear,0,2013-03-05 08:55:00
11:55 PM,62.2,53.2,72,30.13,10.0,West,3.5,-,N/A,,Partly Cloudy,280,2013-03-05 09:55:00